Regional Weather Roundup
Issued by NWS Charleston, SC

Current Version | Previous Version | Graphics & Text | Print | Product List | Glossary On
Versions: 1 2 3 4 5 6 7 8 9 10 11 12 13 14 15 16 17 18 19 20 21 22 23 24 25 26 27 28 29 30 31 32 33 34 35 36 37 38 39 40 41 42 43 44 45 46 47 48 49 50
000 ASUS42 KCHS 050827 RWRCHS REGIONAL WEATHER ROUNDUP NATIONAL WEATHER SERVICE CHARLESTON SC 400 AM EDT SAT SEP 05 2015 NOTE: "FAIR" INDICATES FEW OR NO CLOUDS BELOW 12,000 FEET WITH NO SIGNIFICANT WEATHER AND/OR OBSTRUCTIONS TO VISIBILITY. NOT ALL STATIONS ARE QUALITY CONTROLLED BY THE NATIONAL WEATHER SERVICE. USE DATA WITH CAUTION...ESPECIALLY DEWPOINT OBSERVATIONS. SCZ027-030-031-034>040-042>050-050900- ...SOUTHEAST SOUTH CAROLINA... CITY SKY/WX TMP DP RH WIND PRES REMARKS N CHARLESTON PTCLDY 74 70 87 NE6 30.01S WATERFRONT PRK N/A 78 77 96 N10 29.98R MOUNT PLEASANT FAIR 73 72 94 CALM 30.00F JOHNS ISLAND FAIR 77 77 100 N7 30.01R FOG PINOPOLIS N/A 79 70 73 N7 29.94F MONCKS CORNER FAIR 75 68 78 CALM 30.01S SUMMERVILLE NOT AVBL BEAUFORT MCAS PTCLDY 74 71 91 N6 30.00S BEAUFORT ARPT CLOUDY 75 75 100 N5 30.00R HILTON HEAD IS CLEAR 75 75 100 NW3 30.01R FOG WALTERBORO PTSUNNY 73 70 88 N6 30.03R ALLENDALE FAIR 73 72 94 N5 30.01S ...SOUTHERN MIDLANDS AND PEE DEE... CITY SKY/WX TMP DP RH WIND PRES REMARKS GEORGETOWN NOT AVBL KINGSTREE NOT AVBL ORANGEBURG LGT RAIN 72 66 81 NE10 30.04F BARNWELL FAIR 73 68 83 NE9 30.03S AIKEN FAIR 70 63 78 E7 30.07F MANNING FAIR 68 66 94 NW5 30.04S COLUMBIA CLOUDY 71 67 87 N9 30.05R SUMTER CLOUDY 71 68 92 NW8 30.03F FLORENCE MOCLDY 72 69 90 NW6 30.04S MYRTLE BEACH PTCLDY 73 64 73 N7 30.03S N MYRTLE BEACH PTCLDY 71 68 90 VRB5 30.01S $$ GAZ063-065-086>088-099>101-113>116-118-119-134>141-150-050900- ...SOUTHEAST GEORGIA... CITY SKY/WX TMP DP RH WIND PRES REMARKS SAVANNAH ARPT CLEAR 72 70 93 N5 30.00R HUNTER AAF CLEAR 74 74 100 N1 29.97R FORT STEWART CLEAR 73 71 94 CALM 29.98R STATESBORO CLEAR 71 32 24 NE3 30.02S SYLVANIA NOT AVBL CLAXTON NOT AVBL ...CSRA...CENTRAL AND FAR SOUTHEAST GEORGIA... CITY SKY/WX TMP DP RH WIND PRES REMARKS THOMSON MOCLDY 73 72 96 NE6 30.10R AUGUSTA-BUSH CLOUDY 72 69 90 E8 30.03S AUGUSTA-DANIEL CLOUDY 73 68 84 E8 30.05F SWAINSBORO FAIR 72 70 94 E5 30.03S VIDALIA CLEAR 72 72 100 NE7 30.01R EASTMAN FAIR 72 72 100 CALM 30.03R HAZLEHURST FAIR 73 73 100 CALM 29.99S ALMA CLEAR 71 70 96 CALM 29.99R WAYCROSS CLEAR 74 74 100 CALM 30.00R JESUP FAIR 73 73 100 CALM 30.00R BAXLEY FAIR 72 70 94 CALM 29.99S BRUNSWICK CLEAR 72 72 100 CALM 29.99R SAINT SIMONS CLEAR 76 74 93 N3 29.97R $$ SCZ027-028-034-036>038-045-046-048>050-GAZ119-141-050900- ...LAKE AND SUPPLEMENTAL COASTAL OBSERVATIONS... STATION/POSITION TIME TEMP WIND PRES WAVE SWELL AIR SEA DIR/SP/G HT/PER HT/PER/DIR (UTC) (F) (DEG/KT/KT) (MB) (FT/S) (FT/S/D) UPR LAKE MARION NOT AVBL WINYAH BAY NOT AVBL LAKE MURRAY 0700 71 CALM / 3 1017.3F ACE BASIN NERRS NOT AVBL FORT PULASKI 0800 78 84 350/ 4/ 5 1015.9R SAPELO ISLAND 0800 75 20/ 2 1015.0S $$ ANZ835-935-AMZ111-154-330-350-352-354-370-450-454-472-050900- ...C-MAN AND BUOY OBSERVATIONS... STATION/POSITION TIME TEMP WIND PRES WAVE SWELL AIR SEA DIR/SP/G HT/PER HT/PER/DIR (UTC) (F) (DEG/KT/KT) (MB) (FT/S) (FT/S/D) BUOY 41004 0750 82 84 10/ 10/ 12 1015.3R 1/11 BUOY 41008 0750 82 84 350/ 6/ 6 1015.1R 1 FOLLY BEACH CMAN 0800 78 10/ 13/ 14 1016.1S CAPERS NEARSHORE 0708 80 10/ 14/ 17 1016.2R FRIPP NEARSHORE 0700 82 40/ 8/ 8 1015.0S STATION/POSITION TIME TEMP WIND PRES WAVE SWELL AIR SEA DIR/SP/G HT/PER HT/PER/DIR (UTC) (F) (DEG/KT/KT) (MB) (FT/S) (FT/S/D) 5E ST. MARYS GA 0721 86 N/A 1/13 FRYING PAN BUOY 0750 82 82 350/ 8/ 10 1015.6F 1/12 BUOY 41025 0750 83 84 50/ 12/ 16 1015.3R 3/ 5 2/ 20/ 7 CAPE LOOKOUT NC 0800 77 40/ 17/ 19 1015.1F BUOY 41002 0750 82 84 40/ 8/ 10 1013.6F 1/10 2/ 30/10 BUOY 41010 0720 83 85 40/ 8/ 10 1013.7F ST AUGUSTINE FL 0800 78 85 350/ 6/ 6 1015.2R $$

USA.gov is the U.S. government's official web portal to all federal, state and local government web resources and services.